Location: Gombori
(14.9797°N, 2.9419°W)
Time: 23:09:43
(UTC+00:00)

USA 307 - Pass Details

Date: 29 July 2021
Orbit: 565 x 575 km, 54.0° (Epoch: 17 September)

Event Time Altitude Azimuth Distance (km) Brightness Sun altitude
Rises 20:34:47 0° 318° (NW) 2,758 7.6 -25.6°
Reaches altitude 10° 20:37:05 10° 313° (NW) 1,858 6.5 -26.1°
Enters shadow 20:40:36 47° 267° (W) 747 3.7 -26.8°
